This is the latest recevied weather packets stored in our database for station/object EA3ANS-1. If no packets are shown the sender has not sent any weather packets the latest 10 day(s).
| Time | Temp. | Humidity | Pressure | Rain* | Wind** | Luminosity | Snow |
|---|---|---|---|---|---|---|---|
| 1787912909 | 26.67° C | - | 1015.5 hPa | 0 mm | 0.45 m/s, 307° | - | - |
| 1787912288 | 26.67° C | - | 1015.5 hPa | 0 mm | 3.13 m/s, 316° | - | - |
| 1787911691 | 26.67° C | - | 1015.6 hPa | 0 mm | 3.13 m/s, 328° | - | - |
| 1787911093 | 26.67° C | - | 1016 hPa | 0 mm | 3.58 m/s, 280° | - | - |
| 1787910492 | 26.67° C | - | 1016.1 hPa | 0 mm | 2.68 m/s, 290° | - | - |
| 1787909894 | 26.67° C | - | 1016 hPa | 0 mm | 1.79 m/s, 264° | - | - |
| 1787909297 | 26.67° C | - | 1016 hPa | 0 mm | 3.13 m/s, 298° | - | - |
| 1787908699 | 26.11° C | - | 1016.1 hPa | 0 mm | 3.58 m/s, 260° | - | - |
| 1787908087 | 25.56° C | - | 1016.2 hPa | 0 mm | 4.47 m/s, 287° | - | - |
| 1787907490 | 25.56° C | - | 1016 hPa | 0 mm | 4.02 m/s, 281° | - | - |
| 1787906891 | 25.56° C | - | 1016.2 hPa | 0 mm | 5.81 m/s, 302° | - | - |
| 1787906294 | 25° C | - | 1016 hPa | 0 mm | 2.68 m/s, 294° | - | - |
| 1787905695 | 25° C | - | 1015.8 hPa | 0 mm | 3.58 m/s, 284° | - | - |
| 1787905098 | 25° C | - | 1015.6 hPa | 0 mm | 6.26 m/s, 266° | - | - |
| 1787904500 | 25° C | - | 1015.6 hPa | 0 mm | 5.81 m/s, 319° | - | - |
| 1787903892 | 25° C | - | 1015.4 hPa | 0 mm | 4.92 m/s, 274° | - | - |
| 1787903295 | 25° C | - | 1015.5 hPa | 0 mm | 5.36 m/s, 295° | - | - |
| 1787902697 | 25° C | - | 1015.3 hPa | 0 mm | 4.02 m/s, 271° | - | - |
| 1787902100 | 25° C | - | 1015.2 hPa | 0 mm | 1.34 m/s, 350° | - | - |
| 1787901501 | 25.56° C | - | 1015.1 hPa | 0 mm | 2.24 m/s, 325° | - | - |
| 1787900902 | 25° C | - | 1014.8 hPa | 0 mm | 3.13 m/s, 307° | - | - |
| 1787900304 | 25° C | - | 1014.4 hPa | 0 mm | 3.13 m/s, 321° | - | - |
| 1787899688 | 25.56° C | - | 1014.4 hPa | 0 mm | 2.24 m/s, 300° | - | - |
| 1787899087 | 25.56° C | - | 1014.4 hPa | 0 mm | 2.68 m/s, 274° | - | - |
| 1787898490 | 25° C | - | 1014.4 hPa | 0 mm | 0 m/s | - | - |
* Rain latest hour (hover to see other rain measurements)
** Current wind speed in m/s (hover to see current wind gust speed)